Location: Newark
(49.8348°N, 24.0280°E)
Time: 23:50:27
(UTC+00:00)

deb Explorer IX - Pass Details

Date: 30 January 2020
Orbit: 549 x 1099 km, 38.8° (Epoch: 20 February)

Event Time Altitude Azimuth Distance (km) Brightness Sun altitude
Rises 19:20:47 0° 239° (WSW) 3,591 ? -39.4°
Reaches altitude 10° 19:23:34 10° 230° (SW) 2,725 ? -39.8°
Enters shadow 19:24:16 13° 226° (SW) 2,528 ? -39.9°
